Vacaville, CA

6:59 PM PST on December 12, 2017 (GMT -0800)
Nut Tree

Weather History for KVCB - July, 2012

Change the Weather History Date:

Tuesday, July 31, 2012

  Actual Average Record
Temperature  
Mean Temperature 80 °F -  
Max Temperature 99 °F 96 °F 107 °F (1951)
Min Temperature 62 °F 56 °F 49 °F (1969)
Cooling Degree Days 15    
Growing Degree Days 30 (Base 50)    
Moisture  
Dew Point 50 °F    
Average Humidity 40    
Maximum Humidity 70    
Minimum Humidity 15    
Precipitation  
Precipitation 0.00 in - - ()
Sea Level Pressure  
Sea Level Pressure 29.89 in    
Wind  
Wind Speed 4 mph (SSW)    
Max Wind Speed 10 mph    
Max Gust Speed 17 mph    
Visibility 10 miles    
Events      
Averages and records for this station are not official NWS values.
T = Trace of Precipitation, MM = Missing Value Source: NWS Daily Summary

Daily Weather History Graph

Daily Weather History Graph

Search for Another Location

Airport or City:

Trip Planner

Search our weather history database for the weather conditions in past years. The results will help you decide how hot, cold, wet, or windy it might be!

Date:

Astronomy

Jul. 31, 2012 Rise Set
Actual Time 6:09 AM PDT 8:18 PM PDT
Civil Twilight 5:40 AM PDT 8:47 PM PDT
Nautical Twilight 5:04 AM PDT 9:23 PM PDT
Astronomical Twilight 4:24 AM PDT 10:02 PM PDT
Moon 7:11 PM PDT (7/31) 4:37 AM PDT (7/31)
Length of Visible Light 15h 07m
Length of Day
14h 08m
Waxing Gibbous, 98% of the Moon is Illuminated
Jul 31
Waxing Gibbous
Aug 1
Full
Aug 9
Last Quarter
Aug 17
New
Aug 24
First Quarter

Hourly Weather History & Observations

Time (PDT) Temp. Heat Index Dew Point Humidity Pressure Visibility Wind Dir Wind Speed Gust Speed Precip Events Conditions
12:53 AM 75.9 °F - 48.9 °F 38% 29.85 in 10.0 mi WSW 5.8 mph - N/A   Clear
1:53 AM 68.0 °F - 53.1 °F 59% 29.86 in 10.0 mi Calm Calm - N/A   Clear
2:53 AM 64.9 °F - 53.1 °F 65% 29.86 in 10.0 mi Calm Calm - N/A   Clear
3:53 AM 62.1 °F - 52.0 °F 70% 29.87 in 10.0 mi Calm Calm - N/A   Clear
4:53 AM 64.9 °F - 53.1 °F 65% 29.88 in 10.0 mi South 4.6 mph - N/A   Clear
5:53 AM 64.0 °F - 52.0 °F 65% 29.89 in 10.0 mi WSW 3.5 mph - N/A   Clear
6:53 AM 64.9 °F - 53.1 °F 65% 29.91 in 10.0 mi Calm Calm - N/A   Clear
7:53 AM 71.1 °F - 54.0 °F 55% 29.92 in 10.0 mi Calm Calm - N/A   Clear
8:53 AM 75.9 °F - 52.0 °F 43% 29.94 in 10.0 mi Calm Calm - N/A   Clear
9:53 AM 81.0 °F 80.5 °F 54.0 °F 39% 29.95 in 10.0 mi Variable 4.6 mph - N/A   Clear
10:53 AM 87.1 °F 85.3 °F 55.0 °F 33% 29.95 in 10.0 mi Variable 3.5 mph - N/A   Clear
12:53 PM 91.0 °F - 48.9 °F 23% 29.93 in 10.0 mi SE 5.8 mph - N/A   Clear
1:53 PM 95.0 °F - 48.0 °F 20% 29.91 in 10.0 mi Variable 5.8 mph - N/A   Clear
2:53 PM 98.1 °F - 46.0 °F 17% 29.90 in 10.0 mi SSE 9.2 mph - N/A   Clear
3:53 PM 98.1 °F - 43.0 °F 15% 29.88 in 10.0 mi Variable 6.9 mph - N/A   Clear
4:53 PM 97.0 °F - 44.1 °F 16% 29.87 in 10.0 mi SSW 10.4 mph 17.3 mph N/A   Clear
6:53 PM 91.9 °F - 48.0 °F 22% 29.87 in 10.0 mi SSW 5.8 mph - N/A   Clear
7:53 PM 89.1 °F - 45.0 °F 22% 29.88 in 10.0 mi SSW 4.6 mph - N/A   Clear
8:53 PM 84.0 °F - 48.9 °F 29% 29.88 in 10.0 mi SSW 4.6 mph - N/A   Clear
10:53 PM 75.0 °F - 48.9 °F 40% 29.89 in 10.0 mi SW 8.1 mph - N/A   Clear
11:53 PM 71.1 °F - 48.0 °F 44% 29.90 in 10.0 mi Calm Calm - N/A   Clear